Location: Johnson City
(36.3130°N, 82.3540°W)
Time: 05:54:59
(UTC-04:00)

Envisat - Visible Passes

Search period start: 27 May 2017 00:00
Search period end: 06 June 2017 00:00
Orbit: 764 x 766 km, 98.2° (Epoch: 26 May)

Date Brightness Start Highest point End Pass type
(mag) Time Alt. Az. Time Alt. Az. Time Alt. Az.
27 May 3.2 21:41:35 10° S 21:46:39 76° WSW 21:51:44 10° NNW visible
28 May 3.4 21:05:12 10° SE 21:10:02 46° ENE 21:14:53 10° N visible
28 May 5.4 22:45:56 10° SW 22:49:15 17° W 22:52:35 10° NW visible
29 May 4.1 22:07:34 10° SSW 22:12:19 40° W 22:17:06 10° NNW visible
30 May 3.0 21:30:30 10° SSE 21:35:35 85° ENE 21:40:41 10° NNW visible
31 May 5.1 22:34:10 10° SW 22:38:05 22° W 22:42:01 10° NW visible
01 Jun 3.7 21:56:17 10° S 22:01:12 52° W 22:06:10 10° NNW visible
02 Jun 3.1 21:19:30 10° SSE 21:24:31 66° ENE 21:29:34 10° N visible
02 Jun 5.6 23:02:05 10° WSW 23:03:56 12° W 23:05:48 10° WNW visible
03 Jun 4.7 22:22:35 10° SSW 22:26:56 29° W 22:31:18 10° NW visible
04 Jun 3.3 21:45:05 10° S 21:50:06 68° WSW 21:55:11 10° NNW visible
05 Jun 3.3 21:08:35 10° SSE 21:13:28 51° ENE 21:18:24 10° N visible
05 Jun 5.5 22:49:45 10° SW 22:52:45 16° W 22:55:46 10° NW visible
